Year,Month,Day,Hour,Minute,Value (Times are PST for temperature in C)
2017,02,10,00,00,7.30
2017,02,10,00,01,7.40
2017,02,10,00,02,7.40
2017,02,10,00,03,7.40
2017,02,10,00,04,7.40
2017,02,10,00,05,7.40
2017,02,10,00,06,7.30
2017,02,10,00,07,7.30
2017,02,10,00,08,7.20
2017,02,10,00,09,7.10
2017,02,10,00,10,7.00
2017,02,10,00,11,6.90
2017,02,10,00,12,6.80
2017,02,10,00,13,6.80
2017,02,10,00,14,6.80
2017,02,10,00,15,6.70
2017,02,10,00,16,6.60
2017,02,10,00,17,6.60
2017,02,10,00,18,6.50
2017,02,10,00,19,6.40
2017,02,10,00,20,6.40
2017,02,10,00,21,6.30
2017,02,10,00,22,6.30
2017,02,10,00,23,6.20
2017,02,10,00,24,6.20
2017,02,10,00,25,6.10
2017,02,10,00,26,6.10
2017,02,10,00,27,6.00
2017,02,10,00,28,6.00
2017,02,10,00,29,5.90
2017,02,10,00,30,5.90
2017,02,10,00,31,5.80
2017,02,10,00,32,5.70
2017,02,10,00,33,5.70
2017,02,10,00,34,5.70
2017,02,10,00,35,5.60
2017,02,10,00,36,5.60
2017,02,10,00,37,5.50
2017,02,10,00,38,5.40
2017,02,10,00,39,5.40
2017,02,10,00,40,5.40
2017,02,10,00,41,5.50
2017,02,10,00,42,5.60
2017,02,10,00,43,5.50
2017,02,10,00,44,5.50
2017,02,10,00,45,5.40
2017,02,10,00,46,5.40
2017,02,10,00,47,5.40
2017,02,10,00,48,5.30
2017,02,10,00,49,5.30
2017,02,10,00,50,5.30
2017,02,10,00,51,5.30
2017,02,10,00,52,5.30
2017,02,10,00,53,5.30
2017,02,10,00,54,5.30
2017,02,10,00,55,5.30
2017,02,10,00,56,5.30
2017,02,10,00,57,5.20
2017,02,10,00,58,5.20
2017,02,10,00,59,5.20
2017,02,10,01,00,5.20
2017,02,10,01,01,5.30
2017,02,10,01,02,5.30
2017,02,10,01,03,5.30
2017,02,10,01,04,5.30
2017,02,10,01,05,5.30
2017,02,10,01,06,5.30
2017,02,10,01,07,5.30
2017,02,10,01,08,5.30
2017,02,10,01,09,5.30
2017,02,10,01,10,5.20
2017,02,10,01,11,5.20
2017,02,10,01,12,5.30
2017,02,10,01,13,5.30
2017,02,10,01,14,5.30
2017,02,10,01,15,5.30
2017,02,10,01,16,5.20
2017,02,10,01,17,5.20
2017,02,10,01,18,5.20
2017,02,10,01,19,5.10
2017,02,10,01,20,5.10
2017,02,10,01,21,5.10
2017,02,10,01,22,5.10
2017,02,10,01,23,5.10
2017,02,10,01,24,5.10
2017,02,10,01,25,5.10
2017,02,10,01,26,5.10
2017,02,10,01,27,5.10
2017,02,10,01,28,5.20
2017,02,10,01,29,5.30
2017,02,10,01,30,5.30
2017,02,10,01,31,5.30
2017,02,10,01,32,5.30
2017,02,10,01,33,5.20
2017,02,10,01,34,5.20
2017,02,10,01,35,5.20
2017,02,10,01,36,5.10
2017,02,10,01,37,5.10
2017,02,10,01,38,5.10
2017,02,10,01,39,5.10
2017,02,10,01,40,5.10
2017,02,10,01,41,5.10
2017,02,10,01,42,5.10
2017,02,10,01,43,5.10
2017,02,10,01,44,5.10
2017,02,10,01,45,5.10
2017,02,10,01,46,5.10
2017,02,10,01,47,5.10
2017,02,10,01,48,5.10
2017,02,10,01,49,5.10
2017,02,10,01,50,5.10
2017,02,10,01,51,5.10
2017,02,10,01,52,4.90
2017,02,10,01,53,4.90
2017,02,10,01,54,4.90
2017,02,10,01,55,4.80
2017,02,10,01,56,4.80
2017,02,10,01,57,4.80
2017,02,10,01,58,4.80
2017,02,10,01,59,4.70
2017,02,10,02,00,4.70
2017,02,10,02,01,4.60
2017,02,10,02,02,4.60
2017,02,10,02,03,4.60
2017,02,10,02,04,4.60
2017,02,10,02,05,4.50
2017,02,10,02,06,4.50
2017,02,10,02,07,4.50
2017,02,10,02,08,4.50
2017,02,10,02,09,4.50
2017,02,10,02,10,4.50
2017,02,10,02,11,4.50
2017,02,10,02,12,4.50
2017,02,10,02,13,4.50
2017,02,10,02,14,4.50
2017,02,10,02,15,4.50
2017,02,10,02,16,4.60
2017,02,10,02,17,4.60
2017,02,10,02,18,4.60
2017,02,10,02,19,4.60
2017,02,10,02,20,4.60
2017,02,10,02,21,4.60
2017,02,10,02,22,4.70
2017,02,10,02,23,4.70
2017,02,10,02,24,4.70
2017,02,10,02,25,4.70
2017,02,10,02,26,4.70
2017,02,10,02,27,4.70
2017,02,10,02,28,4.70
2017,02,10,02,29,4.70
2017,02,10,02,30,4.70
2017,02,10,02,31,4.70
2017,02,10,02,32,4.70
2017,02,10,02,33,4.70
2017,02,10,02,34,4.70
2017,02,10,02,35,4.70
2017,02,10,02,36,4.70
2017,02,10,02,37,4.70
2017,02,10,02,38,4.60
2017,02,10,02,39,4.60
2017,02,10,02,40,4.60
2017,02,10,02,41,4.60
2017,02,10,02,42,4.60
2017,02,10,02,43,4.60
2017,02,10,02,44,4.60
2017,02,10,02,45,4.60
2017,02,10,02,46,4.60
2017,02,10,02,47,4.70
2017,02,10,02,48,4.70
2017,02,10,02,49,4.70
2017,02,10,02,50,4.70
2017,02,10,02,51,4.70
2017,02,10,02,52,4.70
2017,02,10,02,53,4.80
2017,02,10,02,54,4.80
2017,02,10,02,55,4.80
2017,02,10,02,56,4.80
2017,02,10,02,57,4.70
2017,02,10,02,58,4.70
2017,02,10,02,59,4.70
2017,02,10,03,00,4.70
2017,02,10,03,01,4.70
2017,02,10,03,02,4.70
2017,02,10,03,03,4.60
2017,02,10,03,04,4.60
2017,02,10,03,05,4.70
2017,02,10,03,06,4.70
2017,02,10,03,07,4.70
2017,02,10,03,08,4.60
2017,02,10,03,09,4.60
2017,02,10,03,10,4.60
2017,02,10,03,11,4.50
2017,02,10,03,12,4.50
2017,02,10,03,13,4.40
2017,02,10,03,14,4.40
2017,02,10,03,15,4.30
2017,02,10,03,16,4.30
2017,02,10,03,17,4.20
2017,02,10,03,18,4.20
2017,02,10,03,19,4.20
2017,02,10,03,20,4.20
2017,02,10,03,21,4.30
2017,02,10,03,22,4.30
2017,02,10,03,23,4.30
2017,02,10,03,24,4.30
2017,02,10,03,25,4.30
2017,02,10,03,26,4.30
2017,02,10,03,27,4.30
2017,02,10,03,28,4.30
2017,02,10,03,29,4.30
2017,02,10,03,30,4.30
2017,02,10,03,31,4.30
2017,02,10,03,32,4.30
2017,02,10,03,33,4.30
2017,02,10,03,34,4.20
2017,02,10,03,35,4.20
2017,02,10,03,36,4.20
2017,02,10,03,37,4.20
2017,02,10,03,38,4.20
2017,02,10,03,39,4.20
2017,02,10,03,40,4.20
2017,02,10,03,41,4.20
2017,02,10,03,42,4.20
2017,02,10,03,43,4.20
2017,02,10,03,44,4.10
2017,02,10,03,45,4.10
2017,02,10,03,46,4.00
2017,02,10,03,47,4.00
2017,02,10,03,48,4.00
2017,02,10,03,49,3.90
2017,02,10,03,50,3.90
2017,02,10,03,51,3.80
2017,02,10,03,52,3.80
2017,02,10,03,53,3.80
2017,02,10,03,54,3.80
2017,02,10,03,55,3.80
2017,02,10,03,56,3.80
2017,02,10,03,57,3.80
2017,02,10,03,58,3.80
2017,02,10,03,59,3.80
2017,02,10,04,00,3.80
2017,02,10,04,01,3.80
2017,02,10,04,02,3.80
2017,02,10,04,03,3.80
2017,02,10,04,04,3.70
2017,02,10,04,05,3.60
2017,02,10,04,06,3.60
2017,02,10,04,07,3.60
2017,02,10,04,08,3.60
2017,02,10,04,09,3.50
2017,02,10,04,10,3.50
2017,02,10,04,11,3.50
2017,02,10,04,12,3.50
2017,02,10,04,13,3.50
2017,02,10,04,14,3.50
2017,02,10,04,15,3.50
2017,02,10,04,16,3.50
2017,02,10,04,17,3.50
2017,02,10,04,18,3.60
2017,02,10,04,19,3.60
2017,02,10,04,20,3.60
2017,02,10,04,21,3.60
2017,02,10,04,22,3.50
2017,02,10,04,23,3.50
2017,02,10,04,24,3.50
2017,02,10,04,25,3.50
2017,02,10,04,26,3.60
2017,02,10,04,27,3.60
2017,02,10,04,28,3.60
2017,02,10,04,29,3.70
2017,02,10,04,30,3.70
2017,02,10,04,31,3.70
2017,02,10,04,32,3.70
2017,02,10,04,33,3.60
2017,02,10,04,34,3.60
2017,02,10,04,35,3.60
2017,02,10,04,36,3.60
2017,02,10,04,37,3.60
2017,02,10,04,38,3.60
2017,02,10,04,39,3.60
2017,02,10,04,40,3.60
2017,02,10,04,41,3.70
2017,02,10,04,42,3.70
2017,02,10,04,43,3.70
2017,02,10,04,44,3.70
2017,02,10,04,45,3.80
2017,02,10,04,46,3.80
2017,02,10,04,47,3.80
2017,02,10,04,48,3.80
2017,02,10,04,49,3.80
2017,02,10,04,50,3.90
2017,02,10,04,51,3.90
2017,02,10,04,52,4.00
2017,02,10,04,53,4.00
2017,02,10,04,54,4.10
2017,02,10,04,55,4.10
2017,02,10,04,56,4.20
2017,02,10,04,57,4.20
2017,02,10,04,58,4.20
2017,02,10,04,59,4.20
2017,02,10,05,00,4.20
2017,02,10,05,01,4.20
2017,02,10,05,02,4.20
2017,02,10,05,03,4.20
2017,02,10,05,04,4.20
2017,02,10,05,05,4.20
2017,02,10,05,06,4.20
2017,02,10,05,07,4.20
2017,02,10,05,08,4.20
2017,02,10,05,09,4.20
2017,02,10,05,10,4.20
2017,02,10,05,11,4.20
2017,02,10,05,12,4.20
2017,02,10,05,13,4.20
2017,02,10,05,14,4.20
2017,02,10,05,15,4.20
2017,02,10,05,16,4.20
2017,02,10,05,17,4.20
2017,02,10,05,18,4.20
2017,02,10,05,19,4.20
2017,02,10,05,20,4.30
2017,02,10,05,21,4.30
2017,02,10,05,22,4.30
2017,02,10,05,23,4.30
2017,02,10,05,24,4.30
2017,02,10,05,25,4.30
2017,02,10,05,26,4.30
2017,02,10,05,27,4.30
2017,02,10,05,28,4.30
2017,02,10,05,29,4.40
2017,02,10,05,30,4.50
2017,02,10,05,31,4.60
2017,02,10,05,32,4.70
2017,02,10,05,33,4.70
2017,02,10,05,34,4.60
2017,02,10,05,35,4.50
2017,02,10,05,36,4.40
2017,02,10,05,37,4.40
2017,02,10,05,38,4.20
2017,02,10,05,39,4.20
2017,02,10,05,40,4.10
2017,02,10,05,41,4.10
2017,02,10,05,42,4.00
2017,02,10,05,43,4.00
2017,02,10,05,44,4.00
2017,02,10,05,45,4.00
2017,02,10,05,46,4.00
2017,02,10,05,47,4.10
2017,02,10,05,48,4.10
2017,02,10,05,49,4.10
2017,02,10,05,50,4.10
2017,02,10,05,51,4.00
2017,02,10,05,52,4.00
2017,02,10,05,53,4.00
2017,02,10,05,54,3.90
2017,02,10,05,55,3.90
2017,02,10,05,56,3.80
2017,02,10,05,57,3.80
2017,02,10,05,58,3.90
2017,02,10,05,59,3.90
2017,02,10,06,00,3.80
2017,02,10,06,01,3.80
2017,02,10,06,02,3.70
2017,02,10,06,03,3.70
2017,02,10,06,04,3.60
2017,02,10,06,05,3.60
2017,02,10,06,06,3.50
2017,02,10,06,07,3.50
2017,02,10,06,08,3.50
2017,02,10,06,09,3.50
2017,02,10,06,10,3.50
2017,02,10,06,11,3.50
2017,02,10,06,12,3.40
2017,02,10,06,13,3.40
2017,02,10,06,14,3.40
2017,02,10,06,15,3.40
2017,02,10,06,16,3.40
2017,02,10,06,17,3.40
2017,02,10,06,18,3.40
2017,02,10,06,19,3.40
2017,02,10,06,20,3.50
2017,02,10,06,21,3.50
2017,02,10,06,22,3.50
2017,02,10,06,23,3.50
2017,02,10,06,24,3.50
2017,02,10,06,25,3.40
2017,02,10,06,26,3.40
2017,02,10,06,27,3.40
2017,02,10,06,28,3.40
2017,02,10,06,29,3.30
2017,02,10,06,30,3.30
2017,02,10,06,31,3.30
2017,02,10,06,32,3.30
2017,02,10,06,33,3.30
2017,02,10,06,34,3.30
2017,02,10,06,35,3.30
2017,02,10,06,36,3.30
2017,02,10,06,37,3.30
2017,02,10,06,38,3.40
2017,02,10,06,39,3.40
2017,02,10,06,40,3.40
2017,02,10,06,41,3.40
2017,02,10,06,42,3.40
2017,02,10,06,43,3.40
2017,02,10,06,44,3.40
2017,02,10,06,45,3.40
2017,02,10,06,46,3.50
2017,02,10,06,47,3.50
2017,02,10,06,48,3.50
2017,02,10,06,49,3.50
2017,02,10,06,50,3.50
2017,02,10,06,51,3.50
2017,02,10,06,52,3.50
2017,02,10,06,53,3.50
2017,02,10,06,54,3.50
2017,02,10,06,55,3.60
2017,02,10,06,56,3.60
2017,02,10,06,57,3.60
2017,02,10,06,58,3.60
2017,02,10,06,59,3.60
2017,02,10,07,00,3.60
2017,02,10,07,01,3.60
2017,02,10,07,02,3.60
2017,02,10,07,03,3.60
2017,02,10,07,04,3.60
2017,02,10,07,05,3.60
2017,02,10,07,06,3.60
2017,02,10,07,07,3.60
2017,02,10,07,08,3.60
2017,02,10,07,09,3.60
2017,02,10,07,10,3.70
2017,02,10,07,11,3.70
2017,02,10,07,12,3.80
2017,02,10,07,13,3.80
2017,02,10,07,14,3.90
2017,02,10,07,15,4.00
2017,02,10,07,16,4.00
2017,02,10,07,17,4.00
2017,02,10,07,18,4.10
2017,02,10,07,19,4.10
2017,02,10,07,20,4.20
2017,02,10,07,21,4.20
2017,02,10,07,22,4.20
2017,02,10,07,23,4.20
2017,02,10,07,24,4.20
2017,02,10,07,25,4.20
2017,02,10,07,26,4.20
2017,02,10,07,27,4.20
2017,02,10,07,28,4.20
2017,02,10,07,29,4.20
2017,02,10,07,30,4.20
2017,02,10,07,31,4.20
2017,02,10,07,32,4.20
2017,02,10,07,33,4.20
2017,02,10,07,34,4.20
2017,02,10,07,35,4.20
2017,02,10,07,36,4.20
2017,02,10,07,37,4.20
2017,02,10,07,38,4.20
2017,02,10,07,39,4.20
2017,02,10,12,55,6.20
2017,02,10,12,56,6.20
2017,02,10,12,57,6.20
2017,02,10,12,58,6.20
2017,02,10,12,59,6.20
2017,02,10,13,00,6.20
2017,02,10,13,01,6.10
2017,02,10,13,02,6.10
2017,02,10,13,03,6.10
2017,02,10,13,04,6.00
2017,02,10,13,05,6.00
2017,02,10,13,06,6.00
2017,02,10,13,07,6.00
2017,02,10,13,08,6.00
2017,02,10,13,09,6.00
2017,02,10,13,10,5.90
2017,02,10,13,11,5.90
2017,02,10,13,12,5.90
2017,02,10,13,13,5.90
2017,02,10,13,14,5.90
2017,02,10,13,15,5.90
2017,02,10,13,16,5.90
2017,02,10,13,17,5.90
2017,02,10,13,18,5.90
2017,02,10,13,19,5.80
2017,02,10,13,20,5.80
2017,02,10,13,21,5.80
2017,02,10,13,22,5.70
2017,02,10,13,23,5.70
2017,02,10,13,24,5.70
2017,02,10,13,25,5.70
2017,02,10,13,26,5.70
2017,02,10,13,27,5.70
2017,02,10,13,28,5.70
2017,02,10,13,29,5.70
2017,02,10,13,30,5.60
2017,02,10,13,31,5.60
2017,02,10,13,32,5.60
2017,02,10,13,33,5.60
2017,02,10,13,34,5.60
2017,02,10,13,35,5.60
2017,02,10,13,36,5.60
2017,02,10,13,37,5.60
2017,02,10,13,38,5.50
2017,02,10,13,39,5.50
2017,02,10,13,40,5.50
2017,02,10,13,41,5.50
2017,02,10,13,42,5.50
2017,02,10,13,43,5.50
2017,02,10,13,44,5.50
2017,02,10,13,45,5.50
2017,02,10,13,46,5.50
2017,02,10,13,47,5.50
2017,02,10,13,48,5.50
2017,02,10,13,49,5.50
2017,02,10,13,50,5.50
2017,02,10,13,51,5.50
2017,02,10,13,52,5.50
2017,02,10,13,53,5.50
2017,02,10,13,54,5.40
2017,02,10,13,55,5.40
2017,02,10,13,56,5.40
2017,02,10,13,57,5.40
2017,02,10,13,58,5.40
2017,02,10,13,59,5.40
2017,02,10,14,00,5.40
2017,02,10,14,01,5.40
2017,02,10,14,02,5.40
2017,02,10,14,03,5.40
2017,02,10,14,04,5.40
2017,02,10,14,05,5.40
2017,02,10,14,06,5.40
2017,02,10,14,07,5.40
2017,02,10,14,08,5.30
2017,02,10,14,09,5.30
2017,02,10,14,10,5.30
2017,02,10,14,11,5.30
2017,02,10,14,12,5.30
2017,02,10,14,13,5.30
2017,02,10,14,14,5.30
2017,02,10,14,15,5.30
2017,02,10,14,16,5.30
2017,02,10,14,17,5.30
2017,02,10,14,18,5.30
2017,02,10,14,19,5.30
2017,02,10,14,20,5.30
2017,02,10,14,21,5.30
2017,02,10,14,22,5.40
2017,02,10,14,23,5.40
2017,02,10,14,24,5.50
2017,02,10,14,25,5.50
2017,02,10,14,26,5.50
2017,02,10,14,27,5.50
2017,02,10,14,28,5.50
2017,02,10,14,29,5.50
2017,02,10,14,30,5.50
2017,02,10,14,31,5.40
2017,02,10,14,32,5.40
2017,02,10,14,33,5.50
2017,02,10,14,34,5.50
2017,02,10,14,35,5.50
2017,02,10,14,36,5.50
2017,02,10,14,37,5.50
2017,02,10,14,38,5.50
2017,02,10,14,39,5.60
2017,02,10,14,40,5.60
2017,02,10,14,41,5.60
2017,02,10,14,42,5.70
2017,02,10,14,43,5.70
2017,02,10,14,44,5.70
2017,02,10,14,45,5.70
2017,02,10,14,46,5.70
2017,02,10,14,47,5.80
2017,02,10,14,48,5.80
2017,02,10,14,49,5.80
2017,02,10,14,50,5.80
2017,02,10,14,51,5.80
2017,02,10,14,52,5.80
2017,02,10,14,53,5.80
2017,02,10,14,54,5.80
2017,02,10,14,55,5.70
2017,02,10,14,56,5.70
2017,02,10,14,57,5.70
2017,02,10,14,58,5.70
2017,02,10,14,59,5.70
2017,02,10,15,00,5.70
2017,02,10,15,01,5.70
2017,02,10,15,02,5.70
2017,02,10,15,03,5.70
2017,02,10,15,04,5.70
2017,02,10,15,05,5.70
2017,02,10,15,06,5.70
2017,02,10,15,07,5.70
2017,02,10,15,08,5.70
2017,02,10,15,09,5.70
2017,02,10,15,10,5.70
2017,02,10,15,11,5.70
2017,02,10,15,12,5.80
2017,02,10,15,13,5.70
2017,02,10,15,14,5.70
2017,02,10,15,15,5.70
2017,02,10,15,16,5.70
2017,02,10,15,17,5.70
2017,02,10,15,18,5.70
2017,02,10,15,19,5.70
2017,02,10,15,20,5.70
2017,02,10,15,21,5.70
2017,02,10,15,22,5.70
2017,02,10,15,23,5.70
2017,02,10,15,24,5.70
2017,02,10,15,25,5.70
2017,02,10,15,26,5.70
2017,02,10,15,27,5.70
2017,02,10,15,28,5.70
2017,02,10,15,29,5.70
2017,02,10,15,30,5.70
2017,02,10,15,31,5.70
2017,02,10,15,32,5.70
2017,02,10,15,33,5.70
2017,02,10,15,34,5.60
2017,02,10,15,35,5.60
2017,02,10,15,36,5.60
2017,02,10,15,37,5.50
2017,02,10,15,38,5.50
2017,02,10,15,39,5.50
2017,02,10,15,40,5.50
2017,02,10,15,41,5.40
2017,02,10,15,42,5.40
2017,02,10,15,43,5.40
2017,02,10,15,44,5.40
2017,02,10,15,45,5.40
2017,02,10,15,46,5.30
2017,02,10,15,47,5.30
2017,02,10,15,48,5.30
2017,02,10,15,49,5.30
2017,02,10,15,50,5.30
2017,02,10,15,51,5.30
2017,02,10,15,52,5.30
2017,02,10,15,53,5.30
2017,02,10,15,54,5.30
2017,02,10,15,55,5.30
2017,02,10,15,56,5.30
2017,02,10,15,57,5.30
2017,02,10,15,58,5.30
2017,02,10,15,59,5.20
2017,02,10,16,00,5.20
2017,02,10,16,01,5.20
2017,02,10,16,02,5.10
2017,02,10,16,03,5.10
2017,02,10,16,04,5.00
2017,02,10,16,05,4.90
2017,02,10,16,06,4.90
2017,02,10,16,07,4.90
2017,02,10,16,08,4.90
2017,02,10,16,09,4.80
2017,02,10,16,10,4.80
2017,02,10,16,11,4.80
2017,02,10,16,12,4.80
2017,02,10,16,13,4.80
2017,02,10,16,14,4.80
2017,02,10,16,15,4.80
2017,02,10,16,16,4.80
2017,02,10,16,17,4.80
2017,02,10,16,18,4.80
2017,02,10,16,19,4.80
2017,02,10,16,20,4.80
2017,02,10,16,21,4.80
2017,02,10,16,22,4.80
2017,02,10,16,23,4.80
2017,02,10,16,24,4.70
2017,02,10,16,25,4.70
2017,02,10,16,26,4.70
2017,02,10,16,27,4.70
2017,02,10,16,28,4.60
2017,02,10,16,29,4.60
2017,02,10,16,30,4.60
2017,02,10,16,31,4.60
2017,02,10,16,32,4.60
2017,02,10,16,33,4.60
2017,02,10,16,34,4.60
2017,02,10,16,35,4.60
2017,02,10,16,36,4.60
2017,02,10,16,37,4.60
2017,02,10,16,38,4.50
2017,02,10,16,39,4.60
2017,02,10,16,40,4.50
2017,02,10,16,41,4.50
2017,02,10,16,42,4.50
2017,02,10,16,43,4.50
2017,02,10,16,44,4.50
2017,02,10,16,45,4.50
2017,02,10,16,46,4.50
2017,02,10,16,47,4.40
2017,02,10,16,48,4.40
2017,02,10,16,49,4.40
2017,02,10,16,50,4.40
2017,02,10,16,51,4.40
2017,02,10,16,52,4.40
2017,02,10,16,53,4.30
2017,02,10,16,54,4.30
2017,02,10,16,55,4.30
2017,02,10,16,56,4.30
2017,02,10,16,57,4.30
2017,02,10,16,58,4.30
2017,02,10,16,59,4.30
2017,02,10,17,00,4.30
2017,02,10,17,01,4.30
2017,02,10,17,02,4.30
2017,02,10,17,03,4.30
2017,02,10,17,04,4.30
2017,02,10,17,05,4.30
2017,02,10,17,06,4.30
2017,02,10,17,07,4.30
2017,02,10,17,08,4.30
2017,02,10,17,09,4.30
2017,02,10,17,10,4.30
2017,02,10,17,11,4.30
2017,02,10,17,12,4.30
2017,02,10,17,13,4.30
2017,02,10,17,14,4.30
2017,02,10,17,15,4.40
2017,02,10,17,16,4.40
2017,02,10,17,17,4.40
2017,02,10,17,18,4.40
2017,02,10,17,19,4.40
2017,02,10,17,20,4.40
2017,02,10,17,21,4.40
2017,02,10,17,22,4.40
2017,02,10,17,23,4.40
2017,02,10,17,24,4.40
2017,02,10,17,25,4.40
2017,02,10,17,26,4.50
2017,02,10,17,27,4.50
2017,02,10,17,28,4.50
2017,02,10,17,29,4.50
2017,02,10,17,30,4.50
2017,02,10,17,31,4.50
2017,02,10,17,32,4.50
2017,02,10,17,33,4.50
2017,02,10,17,34,4.50
2017,02,10,17,35,4.50
2017,02,10,17,36,4.50
2017,02,10,17,37,4.50
2017,02,10,17,38,4.50
2017,02,10,17,39,4.50
2017,02,10,17,40,4.50
2017,02,10,17,41,4.40
2017,02,10,17,42,4.40
2017,02,10,17,43,4.40
2017,02,10,17,44,4.40
2017,02,10,17,45,4.40
2017,02,10,17,46,4.40
2017,02,10,17,47,4.40
2017,02,10,17,48,4.40
2017,02,10,17,49,4.40
2017,02,10,17,50,4.40
2017,02,10,17,51,4.40
2017,02,10,17,52,4.40
2017,02,10,17,53,4.40
2017,02,10,17,54,4.40
2017,02,10,17,55,4.40
2017,02,10,17,56,4.40
2017,02,10,17,57,4.40
2017,02,10,17,58,4.40
2017,02,10,17,59,4.40
2017,02,10,18,00,4.40
2017,02,10,18,01,4.40
2017,02,10,18,02,4.40
2017,02,10,18,03,4.40
2017,02,10,18,04,4.40
2017,02,10,18,05,4.30
2017,02,10,18,06,4.30
2017,02,10,18,07,4.30
2017,02,10,18,08,4.30
2017,02,10,18,09,4.30
2017,02,10,18,10,4.30
2017,02,10,18,11,4.30
2017,02,10,18,12,4.20
2017,02,10,18,13,4.20
2017,02,10,18,14,4.20
2017,02,10,18,15,4.20
2017,02,10,18,16,4.20
2017,02,10,18,17,4.20
2017,02,10,18,18,4.20
2017,02,10,18,19,4.30
2017,02,10,18,20,4.30
2017,02,10,18,21,4.30
2017,02,10,18,22,4.30
2017,02,10,18,23,4.30
2017,02,10,18,24,4.30
2017,02,10,18,25,4.30
2017,02,10,18,26,4.30
2017,02,10,18,27,4.30
2017,02,10,18,28,4.30
2017,02,10,18,29,4.30
2017,02,10,18,30,4.30
2017,02,10,18,31,4.30
2017,02,10,18,32,4.30
2017,02,10,18,33,4.20
2017,02,10,18,34,4.20
2017,02,10,18,35,4.20
2017,02,10,18,36,4.20
2017,02,10,18,37,4.20
2017,02,10,18,38,4.20
2017,02,10,18,39,4.20
2017,02,10,18,40,4.20
2017,02,10,18,41,4.20
2017,02,10,18,42,4.20
2017,02,10,18,43,4.10
2017,02,10,18,44,4.10
2017,02,10,18,45,4.10
2017,02,10,18,46,4.10
2017,02,10,18,47,4.10
2017,02,10,18,48,4.10
2017,02,10,18,49,4.10
2017,02,10,18,50,4.10
2017,02,10,18,51,4.20
2017,02,10,18,52,4.20
2017,02,10,18,53,4.20
2017,02,10,18,54,4.20
2017,02,10,18,55,4.20
2017,02,10,18,56,4.20
2017,02,10,18,57,4.20
2017,02,10,18,58,4.20
2017,02,10,18,59,4.20
2017,02,10,19,00,4.20
2017,02,10,19,01,4.20
2017,02,10,19,02,4.20
2017,02,10,19,03,4.20
2017,02,10,19,04,4.20
2017,02,10,19,05,4.20
2017,02,10,19,06,4.20
2017,02,10,19,07,4.20
2017,02,10,19,08,4.20
2017,02,10,19,09,4.20
2017,02,10,19,10,4.20
2017,02,10,19,11,4.20
2017,02,10,19,12,4.20
2017,02,10,19,13,4.20
2017,02,10,19,14,4.20
2017,02,10,19,15,4.20
2017,02,10,19,16,4.20
2017,02,10,19,17,4.20
2017,02,10,19,18,4.20
2017,02,10,19,19,4.20
2017,02,10,19,20,4.20
2017,02,10,19,21,4.20
2017,02,10,19,22,4.20
2017,02,10,19,23,4.20
2017,02,10,19,24,4.20
2017,02,10,19,25,4.20
2017,02,10,19,26,4.20
2017,02,10,19,27,4.20
2017,02,10,19,28,4.20
2017,02,10,19,29,4.20
2017,02,10,19,30,4.20
2017,02,10,19,31,4.20
2017,02,10,19,32,4.20
2017,02,10,19,33,4.20
2017,02,10,19,34,4.20
2017,02,10,19,35,4.20
2017,02,10,19,36,4.20
2017,02,10,19,37,4.20
2017,02,10,19,38,4.20
2017,02,10,19,39,4.20
2017,02,10,19,40,4.10
2017,02,10,19,41,4.10
2017,02,10,19,42,4.10
2017,02,10,19,43,4.10
2017,02,10,19,44,4.10
2017,02,10,19,45,4.10
2017,02,10,19,46,4.10
2017,02,10,19,47,4.10
2017,02,10,19,48,4.10
2017,02,10,19,49,4.10
2017,02,10,19,50,4.10
2017,02,10,19,51,4.10
2017,02,10,19,52,4.10
2017,02,10,19,53,4.10
2017,02,10,19,54,4.00
2017,02,10,19,55,4.00
2017,02,10,19,56,4.00
2017,02,10,19,57,4.10
2017,02,10,19,58,4.10
2017,02,10,19,59,4.10
2017,02,10,20,00,4.10
2017,02,10,20,01,4.00
2017,02,10,20,02,4.00
2017,02,10,20,03,4.00
2017,02,10,20,04,4.00
2017,02,10,20,05,4.00
2017,02,10,20,06,4.00
2017,02,10,20,07,4.00
2017,02,10,20,08,4.00
2017,02,10,20,09,3.90
2017,02,10,20,10,3.90
2017,02,10,20,11,3.90
2017,02,10,20,12,3.90
2017,02,10,20,13,3.90
2017,02,10,20,14,3.80
2017,02,10,20,15,3.80
2017,02,10,20,16,3.80
2017,02,10,20,17,3.80
2017,02,10,20,18,3.80
2017,02,10,20,19,3.70
2017,02,10,20,20,3.70
2017,02,10,20,21,3.70
2017,02,10,20,22,3.70
2017,02,10,20,23,3.70
2017,02,10,20,24,3.60
2017,02,10,20,25,3.60
2017,02,10,20,26,3.60
2017,02,10,20,27,3.60
2017,02,10,20,28,3.60
2017,02,10,20,29,3.60
2017,02,10,20,30,3.50
2017,02,10,20,31,3.50
2017,02,10,20,32,3.50
2017,02,10,20,33,3.50
2017,02,10,20,34,3.50
2017,02,10,20,35,3.50
2017,02,10,20,36,3.50
2017,02,10,20,37,3.40
2017,02,10,20,38,3.40
2017,02,10,20,39,3.40
2017,02,10,20,40,3.40
2017,02,10,20,41,3.40
2017,02,10,20,42,3.30
2017,02,10,20,43,3.30
2017,02,10,20,44,3.30
2017,02,10,20,45,3.30
2017,02,10,20,46,3.30
2017,02,10,20,47,3.30
2017,02,10,20,48,3.30
2017,02,10,20,49,3.30
2017,02,10,20,50,3.30
2017,02,10,20,51,3.30
2017,02,10,20,52,3.30
2017,02,10,20,53,3.30
2017,02,10,20,54,3.30
2017,02,10,20,55,3.30
2017,02,10,20,56,3.30
2017,02,10,20,57,3.30
2017,02,10,20,58,3.30
2017,02,10,20,59,3.30
2017,02,10,21,00,3.30
2017,02,10,21,01,3.30
2017,02,10,21,02,3.30
2017,02,10,21,03,3.30
2017,02,10,21,04,3.30
2017,02,10,21,05,3.30
2017,02,10,21,06,3.30
2017,02,10,21,07,3.30
2017,02,10,21,08,3.40
2017,02,10,21,09,3.40
2017,02,10,21,10,3.50
2017,02,10,21,11,3.50
2017,02,10,21,12,3.50
2017,02,10,21,13,3.50
2017,02,10,21,14,3.60
2017,02,10,21,15,3.60
2017,02,10,21,16,3.60
2017,02,10,21,17,3.60
2017,02,10,21,18,3.60
2017,02,10,21,19,3.60
2017,02,10,21,20,3.60
2017,02,10,21,21,3.60
2017,02,10,21,22,3.60
2017,02,10,21,23,3.60
2017,02,10,21,24,3.60
2017,02,10,21,25,3.60
2017,02,10,21,26,3.60
2017,02,10,21,27,3.50
2017,02,10,21,28,3.50
2017,02,10,21,29,3.50
2017,02,10,21,30,3.50
2017,02,10,21,31,3.50
2017,02,10,21,32,3.50
2017,02,10,21,33,3.50
2017,02,10,21,34,3.50
2017,02,10,21,35,3.40
2017,02,10,21,36,3.40
2017,02,10,21,37,3.40
2017,02,10,21,38,3.40
2017,02,10,21,39,3.40
2017,02,10,21,40,3.40
2017,02,10,21,41,3.40
2017,02,10,21,42,3.30
2017,02,10,21,43,3.30
2017,02,10,21,44,3.30
2017,02,10,21,45,3.30
2017,02,10,21,46,3.30
2017,02,10,21,47,3.30
2017,02,10,21,48,3.30
2017,02,10,21,49,3.30
2017,02,10,21,50,3.30
2017,02,10,21,51,3.30
2017,02,10,21,52,3.30
2017,02,10,21,53,3.30
2017,02,10,21,54,3.30
2017,02,10,21,55,3.30
2017,02,10,21,56,3.30
2017,02,10,21,57,3.30
2017,02,10,21,58,3.30
2017,02,10,21,59,3.30
2017,02,10,22,00,3.20
2017,02,10,22,01,3.20
2017,02,10,22,02,3.20
2017,02,10,22,03,3.20
2017,02,10,22,04,3.20
2017,02,10,22,05,3.20
2017,02,10,22,06,3.20
2017,02,10,22,07,3.20
2017,02,10,22,08,3.20
2017,02,10,22,09,3.20
2017,02,10,22,10,3.20
2017,02,10,22,11,3.30
2017,02,10,22,12,3.30
2017,02,10,22,13,3.30
2017,02,10,22,14,3.30
2017,02,10,22,15,3.30
2017,02,10,22,16,3.30
2017,02,10,22,17,3.30
2017,02,10,22,18,3.30
2017,02,10,22,19,3.30
2017,02,10,22,20,3.30
2017,02,10,22,21,3.40
2017,02,10,22,22,3.40
2017,02,10,22,23,3.40
2017,02,10,22,24,3.50
2017,02,10,22,25,3.50
2017,02,10,22,26,3.50
2017,02,10,22,27,3.50
2017,02,10,22,28,3.50
2017,02,10,22,29,3.50
2017,02,10,22,30,3.50
2017,02,10,22,31,3.50
2017,02,10,22,32,3.50
2017,02,10,22,33,3.50
2017,02,10,22,34,3.50
2017,02,10,22,35,3.50
2017,02,10,22,36,3.50
2017,02,10,22,37,3.50
2017,02,10,22,38,3.50
2017,02,10,22,39,3.50
2017,02,10,22,40,3.50
2017,02,10,22,41,3.50
2017,02,10,22,42,3.50
2017,02,10,22,43,3.50
2017,02,10,22,44,3.50
2017,02,10,22,45,3.40
2017,02,10,22,46,3.40
2017,02,10,22,47,3.40
2017,02,10,22,48,3.40
2017,02,10,22,49,3.30
2017,02,10,22,50,3.30
2017,02,10,22,51,3.30
2017,02,10,22,52,3.30
2017,02,10,22,53,3.30
2017,02,10,22,54,3.30
2017,02,10,22,55,3.30
2017,02,10,22,56,3.30
2017,02,10,22,57,3.20
2017,02,10,22,58,3.20
2017,02,10,22,59,3.20
2017,02,10,23,00,3.10
2017,02,10,23,01,3.10
2017,02,10,23,02,3.10
2017,02,10,23,03,3.10
2017,02,10,23,04,3.10
2017,02,10,23,05,3.10
2017,02,10,23,06,3.10
2017,02,10,23,07,3.10
2017,02,10,23,08,3.10
2017,02,10,23,09,3.10
2017,02,10,23,10,3.20
2017,02,10,23,11,3.20
2017,02,10,23,12,3.20
2017,02,10,23,13,3.20
2017,02,10,23,14,3.20
2017,02,10,23,15,3.30
2017,02,10,23,16,3.30
2017,02,10,23,17,3.30
2017,02,10,23,18,3.30
2017,02,10,23,19,3.30
2017,02,10,23,20,3.30
2017,02,10,23,21,3.30